WetterOnline ( https://www.wetteronline.de )

Wetter aktuell Uckermark

Aktuelles Wetter: Angermünde (55m)

6-stündlich | Neueste Meldungen
Ortszeit Temperatur Wetter
So, 17.11. 13:00 4.9° C leichter Regen
So, 17.11. 7:00 -0.1° C Nebel
So, 17.11. 1:00 2.0° C wolkig
Sa, 16.11. 19:00 5.2° C bewölkt
Sa, 16.11. 13:00 8.8° C bedeckt
Sa, 16.11. 7:00 8.2° C bedeckt
Sa, 16.11. 1:00 8.9° C bedeckt
Fr, 15.11. 19:00 8.1° C bedeckt
Ortszeit Temperatur Wetter
So, 17.11. 13:30 5.2° C bedeckt
So, 17.11. 13:20 5.2° C bedeckt
So, 17.11. 13:10 5.1° C bedeckt
So, 17.11. 13:00 4.9° C leichter Regen
So, 17.11. 12:50 4.9° C leichter Regen
So, 17.11. 12:40 4.9° C leichter Regen
So, 17.11. 12:30 4.7° C leichter Regen
So, 17.11. 12:00 4.4° C Sprühregen
Ortszeit Relative Feuchte Sichtweite
So, 17.11. 13:00 93% 6 km
So, 17.11. 7:00 97% 100 m
So, 17.11. 1:00 95% 5.0 km
Sa, 16.11. 19:00 84% 17 km
Sa, 16.11. 13:00 81% 16 km
Sa, 16.11. 7:00 89% 10 km
Sa, 16.11. 1:00 90% 6 km
Fr, 15.11. 19:00 89% 8 km
Ortszeit Relative Feuchte Sichtweite
So, 17.11. 13:30 93% 7 km
So, 17.11. 13:20 93% -
So, 17.11. 13:10 93% -
So, 17.11. 13:00 93% 6 km
So, 17.11. 12:50 93% -
So, 17.11. 12:40 92% -
So, 17.11. 12:30 94% 7 km
So, 17.11. 12:00 95% 5.0 km
Ortszeit Niederschlagsmenge Niederschlagsart
So, 17.11. 13:00 0.2 l/m2 in 6 Std. Regen
So, 17.11. 7:00 0.0 l/m2 in 12 Std. -
So, 17.11. 1:00 0.0 l/m2 in 6 Std. -
Sa, 16.11. 19:00 0.4 l/m2 in 12 Std. -
Sa, 16.11. 13:00 0.4 l/m2 in 6 Std. Regen
Sa, 16.11. 7:00 0.1 l/m2 in 12 Std. Regen
Sa, 16.11. 1:00 0.0 l/m2 in 6 Std. -
Fr, 15.11. 19:00 0.0 l/m2 in 12 Std. -
Ortszeit Niederschlagsmenge Niederschlagsart
So, 17.11. 13:30 0.1 l/m2 in 1 Std. Schneeregen
So, 17.11. 13:20 keine Meldung -
So, 17.11. 13:10 keine Meldung -
So, 17.11. 13:00 0.1 l/m2 in 1 Std. Regen
So, 17.11. 12:50 keine Meldung -
So, 17.11. 12:40 keine Meldung -
So, 17.11. 12:30 0.1 l/m2 in 1 Std. -
So, 17.11. 12:00 0.1 l/m2 in 1 Std. Regen
Ortszeit Stärke Spitze Richtung
km/h Bft. km/h Grad Sektor
So, 17.11. 13:00 13 3 20 20° N
So, 17.11. 7:00 0 0 18 - -
So, 17.11. 1:00 7 2 25 160° S
Sa, 16.11. 19:00 15 3 48 210° SW
Sa, 16.11. 13:00 28 4 44 210° SW
Sa, 16.11. 7:00 14 3 22 120° SO
Sa, 16.11. 1:00 17 3 30 110° O
Fr, 15.11. 19:00 11 2 32 90° O
Ortszeit Stärke Spitze Richtung
km/h Bft. km/h Grad Sektor
So, 17.11. 13:30 11 2 24 10° N
So, 17.11. 13:20 11 2 - 10° N
So, 17.11. 13:10 14 3 - 20° N
So, 17.11. 13:00 13 3 20 20° N
So, 17.11. 12:50 13 3 - 20° N
So, 17.11. 12:40 13 3 - 20° N
So, 17.11. 12:30 9 2 17 20° N
So, 17.11. 12:00 9 2 20 30° NO
Ortszeit Untergrenze Bedeckung Gattung
total tief tief mittel hoch
So, 17.11. 13:00 930 m 8/8 8/8 - - -
So, 17.11. 7:00 <30 m 8/8 0/8 - - -
So, 17.11. 1:00 6000 m 6/8 3/8 - - -
Sa, 16.11. 19:00 690 m 7/8 8/8 - - -
Sa, 16.11. 13:00 420 m 8/8 8/8 - - -
Sa, 16.11. 7:00 3000 m 8/8 8/8 - - -
Sa, 16.11. 1:00 1320 m 8/8 8/8 - - -
Fr, 15.11. 19:00 420 m 8/8 8/8 - - -
Ortszeit Bedeckungsgrad in Achtel und Wolkenuntergrenze
So, 17.11. 13:30 7(1020m) 8(1230m)
So, 17.11. 13:20 7(1020m) 8(1230m)
So, 17.11. 13:10 8(1020m) 8(1230m)
So, 17.11. 13:00 8(930m)
So, 17.11. 12:50 8(930m)
So, 17.11. 12:40 7(900m) 8(1170m)
So, 17.11. 12:30 7(900m) 8(1170m)
So, 17.11. 12:00 5(990m) 6(1380m) 8(1800m)
Ortszeit Luftdruck NN (hPa) Tendenz (hPa in 3 Std.)
So, 17.11. 13:00 1014 - 2,4
So, 17.11. 7:00 1017 + 0,7
So, 17.11. 1:00 1016 + 1,4
Sa, 16.11. 19:00 1012 + 3,2
Sa, 16.11. 13:00 1005 + 1,7
Sa, 16.11. 7:00 1003 - 1,2
Sa, 16.11. 1:00 1006 - 0,9
Fr, 15.11. 19:00 1007 - 0,3
Ortszeit Luftdruck NN (hPa) Tendenz (hPa in 3 Std.)
So, 17.11. 13:30 1014 - 2,5
So, 17.11. 13:20 1014 keine Meldung
So, 17.11. 13:10 1014 keine Meldung
So, 17.11. 13:00 1014 - 2,4
So, 17.11. 12:50 1014 keine Meldung
So, 17.11. 12:40 1014 keine Meldung
So, 17.11. 12:30 1015 - 2,0
So, 17.11. 12:00 1015 - 1,8
Ortszeit Schneehöhe (cm)
So, 17.11. 13:00 0
So, 17.11. 7:00 0
So, 17.11. 1:00 0
Sa, 16.11. 19:00 0
Sa, 16.11. 13:00 0
Sa, 16.11. 7:00 0
Sa, 16.11. 1:00 0
Fr, 15.11. 19:00 0
Ortszeit Schneehöhe (cm)
So, 17.11. 13:30 0
So, 17.11. 13:20 0
So, 17.11. 13:10 0
So, 17.11. 13:00 0
So, 17.11. 12:50 0
So, 17.11. 12:40 0
So, 17.11. 12:30 0
So, 17.11. 12:00 0
Link zu dieser Seite / Seite empfehlen

Das Wetter in ...